Вернуться в каталог

CENTAURI-9

АктивенЛюбительское радиоSSO
NORAD 69924·PAYLOAD·🇯🇵 Japan

Запущен Jul 7, 2026 с Vandenberg Space Force Base

Loading…

Ближайшие Пролёты (ближайшие 24 часа)

TLE

СвежийSource: Space-Track

Эпоха: Sep 14, 2026, 13:06 UTC

1 69924U 26156BH  26257.54624724  .00000934  00000-0  97088-4 0  9998
2 69924  97.7442 156.8720 0006843 287.4217  72.6253 14.92213529 10325

Отслеживайте CENTAURI-9 в реальном времени с AllMySat

Download on the App Store